Flag for Canada Weather past 2 weeks in Sherbrooke, Quebec, Canada

Now
63 °F

Passing clouds.


Feels Like: 63 °F
Forecast: 61 / 73 °F
Wind: 7 mph from Southwest

Location: Sherbrooke

Current Time: Jul 31, 2015 at 6:27:10 AM

Latest Report: Jul 31, 2015 at 6:00 AM


Visibility: 9 mi

Pressure: 29.71 "Hg

Humidity: 88%

Dew point: 59 °F

Location of SherbrookeLocation

Historic Weather in Sherbrooke — Graph

°F

Sherbrooke temperature yesterday

Maximum temperature yesterday: 84 °F (at 11:00 AM)
Minimum temperature yesterday: 64 °F (at 4:50 AM)
Average temperature yesterday: 72 °F

Past Weeks' High & Low Weather Summary

 TemperatureHumidityPressure
High86 °F (Jul 29, 2:00 PM)100% (Jul 16, 5:00 AM)30.14 "Hg (Jul 16, 5:00 AM)
Low39 °F (Jul 16, 5:00 AM)38% (Jul 17, 4:00 PM)29.53 "Hg (Jul 21, 2:00 PM)
Average66 °F84%29.86 "Hg
* Reported Jul 16 5:00 AM — Jul 31 5:00 AM, Sherbrooke, Weather by CustomWeather, © 2015

Note: Actual official high and low records may vary slightly from our data, if they occured in-between our weather recording intervals... More about our weather records

Advertising

Sherbrooke weather history for previous 24 hours

 ConditionsComfort  
Time TempWeatherWind HumidityBarometerVisibility
5:00 AM
Fri, Jul 31
64 °FPassing clouds.6 mph83%29.71 "Hg9 mi
4:00 AM64 °FClear.5 mph88%29.71 "Hg9 mi
3:00 AM64 °FClear.5 mph94%29.71 "Hg9 mi
2:00 AM66 °FClear.6 mph94%29.71 "Hg9 mi
1:00 AM68 °FClear.2 mph94%29.71 "Hg9 mi
12:00 AM68 °FPassing clouds.3 mph94%29.71 "Hg9 mi
11:00 PM
Thu, Jul 30
68 °FLight rain. Mostly cloudy.No wind94%29.72 "Hg9 mi
10:50 PM68 °FLight rain. Mostly cloudy.No wind88%29.72 "Hg9 mi
10:00 PM70 °FPassing clouds.5 mph94%29.72 "Hg9 mi
9:00 PM70 °FSunny.3 mph94%29.72 "Hg9 mi
8:00 PM72 °FSunny.5 mph94%29.71 "Hg9 mi
7:00 PM73 °FPartly sunny.6 mph89%29.71 "Hg9 mi
6:00 PM72 °FMostly cloudy.7 mph94%29.71 "Hg9 mi
5:00 PM72 °FLight rain. Mostly cloudy.5 mph88%29.71 "Hg9 mi
4:00 PM72 °FLight rain. Fog.8 mph94%29.73 "Hg5 mi
3:55 PM72 °FLight rain. Fog.12 mph94%29.73 "Hg5 mi
3:00 PM72 °FLight rain. Mostly cloudy.6 mph94%29.74 "Hg8 mi
2:03 PM73 °FThunderstorms. Mostly cloudy.3 mph89%29.74 "Hg7 mi
1:00 PM82 °FScattered clouds.7 mph58%29.74 "Hg9 mi
12:00 PM82 °FSunny.12 mph58%29.76 "Hg9 mi
11:00 AM84 °FSunny.9 mph58%29.77 "Hg9 mi
10:00 AM82 °FSunny.8 mph62%29.78 "Hg9 mi
9:00 AM79 °FSunny.2 mph74%29.79 "Hg9 mi
8:00 AM73 °FSunny.2 mph83%29.81 "Hg9 mi
7:00 AM70 °FSunny.2 mph88%29.83 "Hg9 mi
6:00 AM66 °FClear.3 mph94%29.83 "Hg7 mi
Weather by CustomWeather, © 2015

See weather overviewHow to use our weather pages